Radiation Dose at Monitoring Post of Fukushima Daini Nuclear Power Station
Date,Time,MP-1(microSv/h),MP-2(microSv/h),MP-3(microSv/h),MP-4(microSv/h),MP-5(microSv/h),MP-6(microSv/h),MP-7(microSv/h),Wind Direction,Wind Velocity(m/s),Rain
2016/06/07,00:00,0.443,0.259,0.463,0.427,0.392,0.212,0.187,south,2.8,No
2016/06/07,00:10,0.441,0.261,0.460,0.427,0.398,0.213,0.185,south,2.4,No
2016/06/07,00:20,0.441,0.259,0.464,0.425,0.391,0.213,0.187,south,2.8,No
2016/06/07,00:30,0.441,0.260,0.462,0.430,0.396,0.213,0.186,south,2.2,No
2016/06/07,00:40,0.439,0.260,0.463,0.423,0.392,0.215,0.188,south,2.8,No
2016/06/07,00:50,0.443,0.260,0.462,0.429,0.396,0.213,0.186,south,2.2,No
2016/06/07,01:00,0.441,0.259,0.462,0.426,0.395,0.214,0.187,south,1.9,No
2016/06/07,01:10,0.442,0.260,0.461,0.429,0.394,0.213,0.185,south,2.7,No
2016/06/07,01:20,0.441,0.259,0.462,0.427,0.396,0.214,0.187,south,3.8,No
2016/06/07,01:30,0.441,0.261,0.462,0.427,0.394,0.212,0.186,south,2.1,No
2016/06/07,01:40,0.437,0.259,0.461,0.429,0.396,0.214,0.187,south,3.9,No
2016/06/07,01:50,0.443,0.261,0.464,0.425,0.393,0.212,0.185,south-southwest,4.5,No
2016/06/07,02:00,0.439,0.258,0.461,0.430,0.396,0.215,0.187,south-southwest,4.7,No
2016/06/07,02:10,0.443,0.261,0.462,0.426,0.392,0.213,0.186,south,5.0,No
2016/06/07,02:20,0.439,0.259,0.460,0.429,0.398,0.214,0.187,south,5.3,No
2016/06/07,02:30,0.443,0.260,0.463,0.423,0.393,0.213,0.186,south,4.8,No
2016/06/07,02:40,0.440,0.260,0.461,0.429,0.396,0.212,0.186,south,5.0,No
2016/06/07,02:50,0.441,0.261,0.464,0.425,0.393,0.213,0.186,south,4.8,No
2016/06/07,03:00,0.441,0.260,0.461,0.431,0.395,0.213,0.186,south-southwest,5.2,No
2016/06/07,03:10,0.442,0.261,0.465,0.426,0.393,0.214,0.186,south-southwest,5.5,No
2016/06/07,03:20,0.440,0.261,0.460,0.427,0.394,0.213,0.187,south-southwest,5.0,No
2016/06/07,03:30,0.441,0.260,0.464,0.428,0.395,0.213,0.187,south-southwest,4.6,No
2016/06/07,03:40,0.440,0.260,0.459,0.425,0.394,0.212,0.186,south-southwest,3.7,No
2016/06/07,03:50,0.441,0.259,0.464,0.429,0.396,0.213,0.186,south-southwest,5.0,No
2016/06/07,04:00,0.440,0.259,0.462,0.424,0.392,0.214,0.187,south-southwest,4.6,No
2016/06/07,04:10,0.442,0.260,0.464,0.430,0.395,0.213,0.185,south-southwest,4.8,No
2016/06/07,04:20,0.440,0.260,0.460,0.426,0.392,0.211,0.186,south-southwest,4.6,No
2016/06/07,04:30,0.441,0.261,0.464,0.430,0.397,0.213,0.185,south-southwest,4.6,No
2016/06/07,04:40,0.441,0.260,0.460,0.426,0.392,0.212,0.186,south-southwest,4.6,No
2016/06/07,04:50,0.442,0.261,0.464,0.430,0.397,0.213,0.186,south-southwest,2.6,No
2016/06/07,05:00,0.439,0.260,0.461,0.424,0.391,0.212,0.187,south,4.2,No
2016/06/07,05:10,0.442,0.261,0.463,0.427,0.396,0.214,0.186,south-southwest,4.3,No
2016/06/07,05:20,0.440,0.259,0.461,0.427,0.394,0.213,0.187,south-southwest,3.8,No
2016/06/07,05:30,0.441,0.261,0.463,0.427,0.396,0.213,0.186,south-southwest,4.6,No
2016/06/07,05:40,0.441,0.258,0.461,0.428,0.394,0.212,0.187,south-southwest,4.9,No
2016/06/07,05:50,0.442,0.261,0.462,0.424,0.393,0.213,0.184,south-southwest,4.3,No
2016/06/07,06:00,0.441,0.259,0.462,0.429,0.394,0.212,0.185,south,3.5,No
2016/06/07,06:10,0.440,0.259,0.459,0.424,0.391,0.214,0.185,south,3.5,No
2016/06/07,06:20,0.440,0.260,0.463,0.428,0.396,0.213,0.187,south-southwest,1.2,No
2016/06/07,06:30,0.438,0.260,0.460,0.426,0.392,0.212,0.187,south-southwest,1.9,No
2016/06/07,06:40,0.443,0.260,0.464,0.425,0.396,0.214,0.186,south,2.5,No
2016/06/07,06:50,0.441,0.260,0.460,0.428,0.395,0.211,0.187,south-southwest,1.7,No
2016/06/07,07:00,0.441,0.260,0.462,0.424,0.390,0.213,0.186,south,1.4,No
2016/06/07,07:10,0.440,0.260,0.462,0.429,0.396,0.212,0.188,south-southwest,1.0,No
2016/06/07,07:20,0.441,0.260,0.460,0.424,0.391,0.213,0.185,south-southwest,1.7,No
2016/06/07,07:30,0.442,0.262,0.464,0.425,0.394,0.212,0.187,south-southwest,0.9,No
2016/06/07,07:40,0.439,0.259,0.458,0.429,0.395,0.212,0.186,-,CALM,No
2016/06/07,07:50,0.443,0.259,0.462,0.423,0.392,0.214,0.187,south,2.5,No
2016/06/07,08:00,0.440,0.260,0.460,0.429,0.396,0.212,0.187,south,1.9,No
2016/06/07,08:10,0.441,0.257,0.461,0.425,0.392,0.213,0.185,south,4.3,No
2016/06/07,08:20,0.441,0.261,0.462,0.424,0.395,0.212,0.187,south,3.6,No
2016/06/07,08:30,0.439,0.259,0.460,0.428,0.396,0.211,0.185,south,3.6,No
2016/06/07,08:40,0.442,0.260,0.464,0.425,0.392,0.213,0.187,south,4.3,No
2016/06/07,08:50,0.440,0.262,0.462,0.425,0.392,0.213,0.187,south,4.8,No
2016/06/07,09:00,0.439,0.259,0.459,0.427,0.396,0.212,0.185,south-southeast,2.5,No
2016/06/07,09:10,0.440,0.257,0.464,0.423,0.391,0.213,0.186,south-southeast,2.3,No
2016/06/07,09:20,0.438,0.261,0.459,0.425,0.391,0.213,0.186,south-southeast,1.2,No
2016/06/07,09:30,0.440,0.259,0.460,0.428,0.395,0.211,0.185,southeast,0.5,No
2016/06/07,09:40,0.442,0.258,0.464,0.422,0.394,0.211,0.187,-,CALM,No
2016/06/07,09:50,0.438,0.260,0.461,-,0.388,0.212,0.185,south-southeast,1.9,No
2016/06/07,10:00,0.438,0.261,0.458,-,0.393,0.212,0.186,south,2.8,No
2016/06/07,10:10,0.441,0.258,0.464,-,0.396,0.213,0.184,south,3.2,No
2016/06/07,10:20,0.440,0.257,0.462,-,0.394,0.213,0.186,south,4.5,No
2016/06/07,10:30,0.436,0.259,0.457,-,0.391,0.213,0.186,south,2.7,No
2016/06/07,10:40,0.439,0.259,0.462,-,0.389,0.213,0.185,south,3.7,No
2016/06/07,10:50,0.443,0.259,0.463,-,0.396,0.213,0.186,south-southeast,2.6,No
2016/06/07,11:00,0.439,0.256,0.459,-,0.394,0.212,0.186,south,3.1,No
2016/06/07,11:10,0.438,0.259,0.460,-,0.391,0.213,0.185,south-southeast,3.9,No
2016/06/07,11:20,0.443,0.258,0.463,-,0.398,0.213,0.187,south,4.5,No
2016/06/07,11:30,0.440,0.257,0.460,-,0.395,0.213,0.185,south,4.6,No
2016/06/07,11:40,0.440,0.260,0.463,-,0.392,0.213,0.186,south,4.2,No
2016/06/07,11:50,0.444,0.260,0.462,-,0.397,0.213,0.186,south,5.8,No
2016/06/07,12:00,0.441,0.258,0.459,-,0.394,0.212,0.185,south,5.6,No
2016/06/07,12:10,0.438,0.260,0.463,-,0.390,0.213,0.185,south,5.4,No
2016/06/07,12:20,0.442,0.261,0.461,-,0.393,0.212,0.186,south,7.6,No
2016/06/07,12:30,0.442,0.259,0.457,-,0.397,0.212,0.186,south,7.5,No
2016/06/07,12:40,0.439,0.257,0.458,-,0.394,0.214,0.185,south,7.9,No
2016/06/07,12:50,0.436,0.259,0.465,-,0.390,0.213,0.186,south,9.5,No
2016/06/07,13:00,0.440,0.262,0.462,-,0.389,0.213,0.186,south,8.9,No
2016/06/07,13:10,0.443,0.261,0.460,-,0.388,0.212,0.186,south-southeast,7.5,No
2016/06/07,13:20,0.441,0.258,0.458,-,0.391,0.212,0.184,south-southeast,8.1,No
2016/06/07,13:30,0.438,0.257,0.458,-,0.396,0.214,0.185,south,8.1,No
2016/06/07,13:40,0.441,0.258,0.459,-,0.396,0.214,0.186,south-southeast,8.3,No
2016/06/07,13:50,0.443,0.260,0.458,-,0.394,0.213,0.187,south,9.5,No
2016/06/07,14:00,0.441,0.260,0.457,-,0.393,0.213,0.187,south,8.8,No
2016/06/07,14:10,0.439,0.258,0.459,-,0.390,0.213,0.185,south,9.0,No
2016/06/07,14:20,0.438,0.257,0.466,-,0.389,0.214,0.186,south,9.7,No
2016/06/07,14:30,0.442,0.260,0.465,-,0.395,0.214,0.188,south,10.2,No
2016/06/07,14:40,0.444,0.261,0.462,-,0.396,0.213,0.185,south,10.7,No
2016/06/07,14:50,0.440,0.258,0.459,-,0.394,0.212,0.185,south,11.0,No
2016/06/07,15:00,0.437,0.258,0.464,-,0.391,0.213,0.188,south,9.7,No
2016/06/07,15:10,0.445,0.260,0.467,0.421,0.395,0.214,0.186,south,8.1,No
2016/06/07,15:20,0.441,0.259,0.462,0.419,0.397,0.213,0.186,south,11.5,No
2016/06/07,15:30,0.439,0.259,0.459,0.419,0.392,0.213,0.186,south,9.5,No
2016/06/07,15:40,0.444,0.259,0.462,0.420,0.391,0.213,0.186,south,10.6,No
2016/06/07,15:50,0.443,0.258,0.466,0.420,0.395,0.214,0.186,south,11.4,No
2016/06/07,16:00,0.439,0.260,0.462,0.418,0.399,0.212,0.187,south,11.8,No
2016/06/07,16:10,0.444,0.260,0.461,0.422,0.394,0.213,0.186,south,11.5,No
2016/06/07,16:20,0.442,0.259,0.467,0.419,0.394,0.212,0.186,south,9.5,No
2016/06/07,16:30,0.441,0.260,0.463,0.421,0.399,0.212,0.187,south,10.1,No
2016/06/07,16:40,0.444,0.261,0.463,0.420,0.394,0.214,0.185,south,10.2,No
2016/06/07,16:50,0.440,0.259,0.466,0.419,0.392,0.214,0.188,south,11.3,No
2016/06/07,17:00,0.442,0.262,0.461,0.422,0.398,0.213,0.187,south,11.2,No
2016/06/07,17:10,0.442,0.261,0.467,0.420,0.394,0.214,0.186,south,11.5,No
2016/06/07,17:20,0.441,0.259,0.463,0.419,0.396,0.214,0.187,south,10.8,No
2016/06/07,17:30,0.444,0.262,0.462,0.421,0.399,0.214,0.186,south,9.4,No
2016/06/07,17:40,0.441,0.260,0.466,0.418,0.394,0.213,0.188,south,8.9,No
2016/06/07,17:50,0.440,0.262,0.461,0.420,0.398,0.214,0.186,south,10.7,No
2016/06/07,18:00,0.444,0.261,0.464,0.420,0.395,0.215,0.187,south,7.8,No
2016/06/07,18:10,0.441,0.260,0.464,0.421,0.395,0.213,0.187,south,6.0,No
2016/06/07,18:20,0.444,0.261,0.460,0.420,0.396,0.214,0.187,south,4.4,No
2016/06/07,18:30,0.441,0.259,0.465,0.418,0.393,0.214,0.187,south,4.4,No
2016/06/07,18:40,0.441,0.262,0.460,0.423,0.397,0.213,0.187,south,4.7,No
2016/06/07,18:50,0.442,0.260,0.467,0.417,0.394,0.214,0.187,south-southwest,5.6,No
2016/06/07,19:00,0.440,0.261,0.462,0.423,0.394,0.213,0.186,south,4.5,No
2016/06/07,19:10,0.444,0.261,0.464,0.419,0.396,0.214,0.187,south-southwest,6.1,No
2016/06/07,19:20,0.440,0.259,0.464,0.421,0.393,0.214,0.187,south-southwest,6.0,No
2016/06/07,19:30,0.443,0.262,0.463,0.420,0.397,0.215,0.188,south-southwest,4.7,No
2016/06/07,19:40,0.441,0.260,0.465,0.419,0.394,0.213,0.187,south-southwest,6.6,No
2016/06/07,19:50,0.443,0.261,0.461,0.421,0.397,0.213,0.187,south-southwest,6.6,No
2016/06/07,20:00,0.442,0.259,0.463,0.418,0.395,0.214,0.188,south-southwest,7.3,No
2016/06/07,20:10,0.443,0.261,0.462,0.421,0.396,0.213,0.187,south-southwest,7.9,No
2016/06/07,20:20,0.444,0.259,0.462,0.418,0.396,0.215,0.187,south-southwest,7.9,No
2016/06/07,20:30,0.440,0.262,0.464,0.422,0.393,0.214,0.187,south-southwest,9.2,No
2016/06/07,20:40,0.444,0.260,0.463,0.419,0.398,0.214,0.187,south-southwest,8.5,No
2016/06/07,20:50,0.440,0.260,0.465,0.421,0.392,0.215,0.186,south-southwest,7.9,No
2016/06/07,21:00,0.443,0.261,0.461,0.420,0.398,0.213,0.187,south-southwest,7.8,No
2016/06/07,21:10,0.440,0.259,0.464,0.419,0.393,0.214,0.186,south-southwest,6.8,No
2016/06/07,21:20,0.441,0.261,0.461,0.421,0.395,0.213,0.187,south-southwest,6.6,No
2016/06/07,21:30,0.442,0.258,0.464,0.419,0.394,0.214,0.186,south-southwest,6.9,No
2016/06/07,21:40,0.441,0.261,0.465,0.421,0.394,0.215,0.187,south-southwest,7.4,No
2016/06/07,21:50,0.443,0.260,0.463,0.418,0.397,0.213,0.187,south-southwest,7.3,No
2016/06/07,22:00,0.440,0.260,0.465,0.421,0.392,0.214,0.186,south-southwest,7.7,No
2016/06/07,22:10,0.442,0.260,0.461,0.419,0.397,0.214,0.187,south-southwest,6.3,No
2016/06/07,22:20,0.442,0.261,0.464,0.420,0.394,0.215,0.185,south-southwest,5.1,No
2016/06/07,22:30,0.440,0.261,0.461,0.421,0.395,0.213,0.187,south-southwest,5.0,No
2016/06/07,22:40,0.444,0.259,0.465,0.418,0.395,0.213,0.186,south-southwest,5.0,No
2016/06/07,22:50,0.441,0.261,0.463,0.422,0.391,0.215,0.186,south-southwest,5.4,No
2016/06/07,23:00,0.443,0.259,0.463,0.419,0.397,0.212,0.188,south-southwest,5.5,No
2016/06/07,23:10,0.439,0.262,0.466,0.422,0.391,0.213,0.186,south-southwest,6.0,No
2016/06/07,23:20,0.443,0.260,0.461,0.419,0.397,0.213,0.187,south-southwest,6.0,No
2016/06/07,23:30,0.441,0.261,0.466,0.422,0.394,0.214,0.185,south-southwest,6.7,No
2016/06/07,23:40,0.443,0.261,0.461,0.421,0.393,0.214,0.188,south-southwest,6.2,No
2016/06/07,23:50,0.442,0.260,0.465,0.417,0.397,0.213,0.185,south-southwest,6.1,No
